RYR8NZ EDDB-EIDW

Flight info

Callsign RYR8NZ
Flight time 2h 1m
Altitude 24000
Route SUKIP4B/06L SUKIP Y206 BUREL P203 HLZ/N0440F360 L980 SAS DCT RAVLO Y70 OTBED L60 PENIL UL28 LELDO M145 BAGSO BAGSO4L
Aircraft B738/M-SDE2E3FGHIRWXY/LB1

Departure

Time 2026-05-06 09:56
Airport Berlin Brandenburg Airport (EDDB)

Arrival

Time 2026-05-06 11:57
Airport Dublin Airport (EIDW)
Time Latitude Longitude Altitude Speed Heading
2026-05-06 09:27 52.36843 13.50982 154 ft 0 kts 159°
2026-05-06 09:41 52.36852 13.50976 154 ft 4 kts 159°
2026-05-06 09:42 52.36877 13.50960 154 ft 3 kts 159°
2026-05-06 09:42 52.36902 13.50950 154 ft 4 kts 189°
2026-05-06 09:42 52.36924 13.50967 154 ft 4 kts 238°
2026-05-06 09:42 52.36928 13.50979 154 ft 0 kts 249°
2026-05-06 09:46 52.36925 13.50968 154 ft 3 kts 249°
2026-05-06 09:47 52.36910 13.50904 154 ft 9 kts 248°
2026-05-06 09:47 52.36881 13.50784 154 ft 14 kts 248°
2026-05-06 09:47 52.36841 13.50612 154 ft 18 kts 248°
2026-05-06 09:47 52.36797 13.50430 154 ft 13 kts 249°
2026-05-06 09:48 52.36762 13.50269 154 ft 12 kts 256°
2026-05-06 09:48 52.36804 13.50158 154 ft 13 kts 340°
2026-05-06 09:48 52.36887 13.50106 154 ft 12 kts 307°
2026-05-06 09:48 52.36882 13.49971 154 ft 14 kts 247°
2026-05-06 09:49 52.36839 13.49803 154 ft 18 kts 248°
2026-05-06 09:49 52.36788 13.49595 154 ft 22 kts 248°
2026-05-06 09:49 52.36732 13.49359 154 ft 22 kts 249°
2026-05-06 09:49 52.36679 13.49125 153 ft 22 kts 251°
2026-05-06 09:50 52.36629 13.48897 153 ft 21 kts 246°
2026-05-06 09:50 52.36593 13.48760 153 ft 16 kts 248°
2026-05-06 09:50 52.36555 13.48595 153 ft 15 kts 249°
2026-05-06 09:50 52.36525 13.48468 153 ft 10 kts 249°
2026-05-06 09:51 52.36529 13.48371 153 ft 7 kts 310°
2026-05-06 09:51 52.36546 13.48355 153 ft 0 kts 337°
2026-05-06 09:52 52.36549 13.48352 153 ft 2 kts 337°
2026-05-06 09:52 52.36579 13.48332 153 ft 7 kts 337°
2026-05-06 09:52 52.36639 13.48293 153 ft 11 kts 342°
2026-05-06 09:52 52.36706 13.48302 153 ft 8 kts 24°
2026-05-06 09:53 52.36734 13.48356 153 ft 0 kts 66°
2026-05-06 09:55 52.36734 13.48357 153 ft 2 kts 66°
2026-05-06 09:55 52.36810 13.48664 154 ft 64 kts 68°
2026-05-06 09:55 52.37056 13.49703 154 ft 129 kts 70°
2026-05-06 09:56 52.37430 13.51331 305 ft 169 kts 69°
2026-05-06 09:56 52.37824 13.53191 1037 ft 176 kts 66°
2026-05-06 09:56 52.38288 13.55141 1846 ft 187 kts 68°
2026-05-06 09:56 52.38770 13.57175 2511 ft 202 kts 66°
2026-05-06 09:57 52.39310 13.59485 2802 ft 228 kts 68°
2026-05-06 09:57 52.40034 13.61908 3130 ft 247 kts 47°
2026-05-06 09:57 52.41385 13.63582 3715 ft 250 kts 24°
2026-05-06 09:57 52.43069 13.64646 4109 ft 267 kts 16°
2026-05-06 09:58 52.44841 13.65623 4917 ft 269 kts 15°
2026-05-06 09:58 52.46618 13.66626 5710 ft 271 kts 18°
2026-05-06 09:58 52.48423 13.67681 6487 ft 275 kts 19°
2026-05-06 09:58 52.50254 13.68759 7058 ft 285 kts 17°
2026-05-06 09:59 52.52202 13.69124 7785 ft 283 kts 349°
2026-05-06 09:59 52.54012 13.67938 8481 ft 282 kts 320°
2026-05-06 09:59 52.55345 13.65616 9192 ft 281 kts 301°
2026-05-06 09:59 52.56396 13.62895 9903 ft 283 kts 298°
2026-05-06 10:00 52.57435 13.60138 10596 ft 284 kts 300°
2026-05-06 10:00 52.58480 13.57377 11331 ft 285 kts 297°
2026-05-06 10:00 52.59094 13.54318 12092 ft 283 kts 272°
2026-05-06 10:00 52.58889 13.51059 12544 ft 298 kts 251°
2026-05-06 10:01 52.57993 13.47837 12767 ft 320 kts 243°
2026-05-06 10:01 52.56950 13.44542 13303 ft 328 kts 243°
2026-05-06 10:01 52.55883 13.41213 14002 ft 330 kts 243°
2026-05-06 10:01 52.54798 13.37813 14722 ft 333 kts 243°
2026-05-06 10:02 52.53726 13.34426 15411 ft 336 kts 243°
2026-05-06 10:02 52.52648 13.31006 16094 ft 338 kts 243°
2026-05-06 10:02 52.51566 13.27559 16786 ft 341 kts 243°
2026-05-06 10:02 52.50472 13.24079 17464 ft 344 kts 243°
2026-05-06 10:03 52.49374 13.20592 18179 ft 345 kts 242°
2026-05-06 10:03 52.48264 13.17069 18743 ft 349 kts 242°
2026-05-06 10:03 52.47149 13.13540 19261 ft 354 kts 242°
2026-05-06 10:03 52.46001 13.09909 19823 ft 357 kts 242°
2026-05-06 10:04 52.44851 13.06273 20385 ft 361 kts 242°
2026-05-06 10:04 52.43688 13.02603 20942 ft 365 kts 242°
2026-05-06 10:04 52.42510 12.98891 21438 ft 370 kts 242°
2026-05-06 10:04 52.41317 12.95136 21961 ft 373 kts 242°
2026-05-06 10:05 52.40116 12.91359 22522 ft 376 kts 242°
2026-05-06 10:05 52.38900 12.87544 23053 ft 379 kts 242°
2026-05-06 10:05 52.37677 12.83711 23517 ft 382 kts 242°
2026-05-06 10:05 52.36439 12.79839 23927 ft 386 kts 242°
2026-05-06 10:06 52.35186 12.75926 24341 ft 389 kts 242°
2026-05-06 10:06 52.33925 12.71990 24741 ft 393 kts 242°
2026-05-06 10:06 52.32651 12.68023 25133 ft 396 kts 242°
2026-05-06 10:06 52.31369 12.64033 25556 ft 398 kts 241°
2026-05-06 10:07 52.30076 12.60018 25952 ft 401 kts 241°
2026-05-06 10:07 52.28771 12.55974 26299 ft 405 kts 241°
2026-05-06 10:07 52.27452 12.51888 26659 ft 408 kts 243°
2026-05-06 10:07 52.26531 12.47486 26969 ft 414 kts 260°
2026-05-06 10:08 52.26452 12.42775 27354 ft 419 kts 276°
2026-05-06 10:08 52.27022 12.38057 27526 ft 428 kts 282°
2026-05-06 10:08 52.27726 12.33307 27822 ft 433 kts 282°
2026-05-06 10:08 52.28453 12.28525 28224 ft 434 kts 282°
2026-05-06 10:09 52.29170 12.23729 28595 ft 436 kts 282°
2026-05-06 10:09 52.29872 12.18893 28909 ft 439 kts 282°
2026-05-06 10:09 52.30562 12.14021 29215 ft 442 kts 282°
2026-05-06 10:09 52.31248 12.09109 29538 ft 445 kts 281°
2026-05-06 10:10 52.31934 12.04156 29806 ft 448 kts 282°
2026-05-06 10:10 52.32620 11.99189 30151 ft 448 kts 281°
2026-05-06 10:10 52.33312 11.94172 30660 ft 444 kts 281°
2026-05-06 10:10 52.33988 11.89246 31031 ft 444 kts 281°
2026-05-06 10:11 52.34579 11.84293 31355 ft 444 kts 275°
2026-05-06 10:11 52.34781 11.79274 31754 ft 440 kts 270°
2026-05-06 10:11 52.34861 11.74289 32226 ft 437 kts 269°
2026-05-06 10:11 52.34917 11.69337 32686 ft 434 kts 268°
2026-05-06 10:12 52.34975 11.64479 33065 ft 433 kts 268°
2026-05-06 10:12 52.35044 11.59557 33443 ft 432 kts 268°
2026-05-06 10:12 52.35123 11.54658 33835 ft 431 kts 268°
2026-05-06 10:12 52.35209 11.49769 34176 ft 429 kts 268°
2026-05-06 10:13 52.35297 11.44843 34477 ft 429 kts 268°
2026-05-06 10:13 52.35386 11.39872 34630 ft 432 kts 268°
2026-05-06 10:13 52.35472 11.34960 34877 ft 432 kts 268°
2026-05-06 10:13 52.35557 11.30066 35262 ft 429 kts 268°
2026-05-06 10:14 52.35638 11.25203 35638 ft 427 kts 269°
2026-05-06 10:14 52.35717 11.20344 35800 ft 429 kts 268°
2026-05-06 10:14 52.35869 11.10517 35806 ft 433 kts 268°
2026-05-06 10:15 52.36015 11.00717 35788 ft 426 kts 268°
2026-05-06 10:15 52.36150 10.91061 35801 ft 425 kts 268°
2026-05-06 10:16 52.36270 10.81399 35812 ft 424 kts 266°
2026-05-06 10:16 52.35494 10.71915 35813 ft 420 kts 256°
2026-05-06 10:17 52.34301 10.62473 35808 ft 422 kts 256°
2026-05-06 10:17 52.33136 10.53130 35804 ft 423 kts 256°
2026-05-06 10:18 52.32168 10.45221 35802 ft 424 kts 256°
2026-05-06 10:18 52.31010 10.35749 35803 ft 426 kts 256°
2026-05-06 10:19 52.29843 10.26269 35813 ft 426 kts 256°
2026-05-06 10:19 52.28666 10.16772 35809 ft 426 kts 256°
2026-05-06 10:20 52.27474 10.07223 35811 ft 426 kts 256°
2026-05-06 10:20 52.26285 9.97752 35812 ft 426 kts 256°
2026-05-06 10:21 52.25465 9.88185 35814 ft 429 kts 268°
2026-05-06 10:21 52.26249 9.78493 35827 ft 433 kts 279°
2026-05-06 10:22 52.27527 9.68871 35815 ft 434 kts 279°
2026-05-06 10:22 52.28799 9.59235 35818 ft 434 kts 279°
2026-05-06 10:23 52.30035 9.49576 35797 ft 434 kts 278°
2026-05-06 10:23 52.31249 9.39902 35800 ft 435 kts 278°
2026-05-06 10:24 52.32451 9.30221 35811 ft 435 kts 278°
2026-05-06 10:24 52.33649 9.20500 35806 ft 437 kts 278°
2026-05-06 10:25 52.34844 9.10739 35793 ft 438 kts 278°
2026-05-06 10:25 52.36031 9.00973 35797 ft 437 kts 278°
2026-05-06 10:26 52.37208 8.91219 35819 ft 437 kts 278°
2026-05-06 10:26 52.38376 8.81466 35805 ft 437 kts 278°
2026-05-06 10:27 52.39545 8.71637 35814 ft 437 kts 278°
2026-05-06 10:27 52.40698 8.61864 35807 ft 437 kts 278°
2026-05-06 10:28 52.41843 8.52090 35819 ft 437 kts 278°
2026-05-06 10:28 52.42985 8.42265 35833 ft 436 kts 278°
2026-05-06 10:29 52.44106 8.32542 35823 ft 435 kts 278°
2026-05-06 10:29 52.45230 8.22723 35821 ft 435 kts 278°
2026-05-06 10:30 52.46337 8.12985 35838 ft 434 kts 278°
2026-05-06 10:30 52.47434 8.03251 35834 ft 434 kts 278°
2026-05-06 10:31 52.48524 7.93501 35833 ft 435 kts 278°
2026-05-06 10:31 52.49607 7.83732 35846 ft 436 kts 277°
2026-05-06 10:32 52.50686 7.73927 35840 ft 438 kts 277°
2026-05-06 10:32 52.51763 7.64065 35828 ft 439 kts 277°
2026-05-06 10:33 52.52839 7.54142 35854 ft 438 kts 277°
2026-05-06 10:33 52.53898 7.44275 35854 ft 439 kts 277°
2026-05-06 10:34 52.54950 7.34400 35858 ft 439 kts 277°
2026-05-06 10:34 52.55992 7.24530 35854 ft 439 kts 277°
2026-05-06 10:35 52.57020 7.14719 35859 ft 438 kts 277°
2026-05-06 10:35 52.58054 7.04766 35865 ft 440 kts 277°
2026-05-06 10:36 52.59076 6.94847 35869 ft 438 kts 277°
2026-05-06 10:36 52.60074 6.85091 35852 ft 429 kts 277°
2026-05-06 10:37 52.61055 6.75400 35872 ft 430 kts 277°
2026-05-06 10:37 52.62029 6.65682 35874 ft 431 kts 276°
2026-05-06 10:38 52.62999 6.55935 35870 ft 432 kts 276°
2026-05-06 10:38 52.63964 6.46166 35885 ft 433 kts 277°
2026-05-06 10:39 52.64921 6.36380 35865 ft 433 kts 277°
2026-05-06 10:39 52.65868 6.26603 35871 ft 431 kts 277°
2026-05-06 10:40 52.66805 6.16856 35865 ft 430 kts 276°
2026-05-06 10:40 52.67727 6.07165 35871 ft 428 kts 276°
2026-05-06 10:41 52.68639 5.97499 35882 ft 426 kts 276°
2026-05-06 10:41 52.69544 5.87835 35876 ft 425 kts 276°
2026-05-06 10:42 52.70440 5.78155 35874 ft 425 kts 276°
2026-05-06 10:42 52.71324 5.68528 35881 ft 425 kts 276°
2026-05-06 10:43 52.72200 5.58892 35886 ft 425 kts 276°
2026-05-06 10:44 52.73503 5.44404 35894 ft 426 kts 276°
2026-05-06 10:44 52.74362 5.34720 35898 ft 427 kts 276°
2026-05-06 10:45 52.75217 5.24999 35896 ft 428 kts 276°
2026-05-06 10:45 52.76065 5.15273 35905 ft 428 kts 276°
2026-05-06 10:46 52.76906 5.05535 35909 ft 429 kts 276°
2026-05-06 10:46 52.77740 4.95785 35915 ft 429 kts 276°
2026-05-06 10:47 52.78566 4.86019 35907 ft 429 kts 276°
2026-05-06 10:47 52.79382 4.76249 35916 ft 430 kts 276°
2026-05-06 10:48 52.80193 4.66447 35898 ft 431 kts 275°
2026-05-06 10:48 52.80862 4.58320 35899 ft 428 kts 275°
2026-05-06 10:49 52.81657 4.48553 35906 ft 424 kts 275°
2026-05-06 10:49 52.82432 4.38918 35909 ft 421 kts 275°
2026-05-06 10:50 52.83194 4.29345 35915 ft 419 kts 275°
2026-05-06 10:50 52.83946 4.19794 35933 ft 419 kts 275°
2026-05-06 10:51 52.84692 4.10227 35927 ft 420 kts 275°
2026-05-06 10:51 52.85433 4.00627 35947 ft 421 kts 275°
2026-05-06 10:52 52.86168 3.91000 35943 ft 422 kts 275°
2026-05-06 10:52 52.86898 3.81341 35941 ft 424 kts 275°
2026-05-06 10:53 52.87620 3.71643 35949 ft 425 kts 275°
2026-05-06 10:53 52.88337 3.61928 35948 ft 426 kts 275°
2026-05-06 10:54 52.89047 3.52185 35954 ft 426 kts 275°
2026-05-06 10:54 52.89749 3.42452 35953 ft 426 kts 275°
2026-05-06 10:55 52.90444 3.32720 35953 ft 425 kts 275°
2026-05-06 10:55 52.91134 3.22941 35950 ft 424 kts 275°
2026-05-06 10:56 52.91858 3.13249 35954 ft 424 kts 278°
2026-05-06 10:56 52.93078 3.03702 35959 ft 423 kts 281°
2026-05-06 10:57 52.94387 2.94191 35963 ft 423 kts 281°
2026-05-06 10:57 52.95660 2.84683 35964 ft 422 kts 280°
2026-05-06 10:58 52.96899 2.75190 35964 ft 421 kts 280°
2026-05-06 10:58 52.98124 2.65683 35977 ft 421 kts 280°
2026-05-06 10:59 52.99339 2.56189 35969 ft 421 kts 280°
2026-05-06 10:59 53.00549 2.46681 35973 ft 421 kts 280°
2026-05-06 11:00 53.01749 2.37184 35970 ft 420 kts 280°
2026-05-06 11:00 53.02942 2.27676 35975 ft 420 kts 280°
2026-05-06 11:01 53.04126 2.18181 35978 ft 420 kts 280°
2026-05-06 11:01 53.05303 2.08680 35973 ft 420 kts 280°
2026-05-06 11:02 53.06473 1.99175 35987 ft 419 kts 280°
2026-05-06 11:02 53.07636 1.89679 35976 ft 419 kts 280°
2026-05-06 11:03 53.08792 1.80169 35981 ft 419 kts 279°
2026-05-06 11:03 53.09939 1.70667 35984 ft 419 kts 279°
2026-05-06 11:04 53.11078 1.61164 35979 ft 419 kts 279°
2026-05-06 11:04 53.12209 1.51661 35986 ft 418 kts 279°
2026-05-06 11:05 53.13339 1.42103 35981 ft 418 kts 279°
2026-05-06 11:05 53.14452 1.32608 35980 ft 417 kts 279°
2026-05-06 11:06 53.15558 1.23115 35984 ft 417 kts 279°
2026-05-06 11:06 53.16654 1.13627 35986 ft 417 kts 279°
2026-05-06 11:07 53.17750 1.04077 35986 ft 417 kts 279°
2026-05-06 11:07 53.18822 0.94661 35996 ft 416 kts 279°
2026-05-06 11:08 53.19893 0.85187 35988 ft 415 kts 278°
2026-05-06 11:08 53.20961 0.75661 35994 ft 415 kts 278°
2026-05-06 11:09 53.22007 0.66278 35994 ft 414 kts 278°
2026-05-06 11:09 53.23058 0.56771 36005 ft 414 kts 278°
2026-05-06 11:10 53.24096 0.47324 35998 ft 414 kts 278°
2026-05-06 11:10 53.25125 0.37864 36006 ft 414 kts 278°
2026-05-06 11:11 53.26137 0.28406 36017 ft 414 kts 278°
2026-05-06 11:11 53.27144 0.18925 36020 ft 415 kts 278°
2026-05-06 11:12 53.28152 0.09392 36010 ft 414 kts 278°
2026-05-06 11:12 53.29144 -0.00084 36029 ft 414 kts 278°
2026-05-06 11:13 53.30131 -0.09612 36028 ft 413 kts 278°
2026-05-06 11:13 53.31105 -0.19080 36023 ft 413 kts 278°
2026-05-06 11:14 53.32077 -0.28604 36022 ft 413 kts 278°
2026-05-06 11:14 53.33037 -0.38072 36024 ft 412 kts 278°
2026-05-06 11:15 53.33991 -0.47538 36028 ft 412 kts 278°
2026-05-06 11:15 53.34943 -0.56995 36022 ft 412 kts 278°
2026-05-06 11:16 53.35735 -0.64927 36027 ft 412 kts 278°
2026-05-06 11:16 53.36665 -0.74451 36036 ft 412 kts 277°
2026-05-06 11:17 53.37578 -0.83914 36033 ft 412 kts 277°
2026-05-06 11:17 53.38488 -0.93403 36044 ft 412 kts 277°
2026-05-06 11:18 53.39434 -1.02964 36051 ft 413 kts 278°
2026-05-06 11:18 53.40353 -1.12451 36038 ft 413 kts 277°
2026-05-06 11:19 53.41253 -1.21949 36050 ft 412 kts 277°
2026-05-06 11:19 53.42121 -1.31435 36053 ft 412 kts 277°
2026-05-06 11:20 53.43010 -1.40921 36043 ft 411 kts 277°
2026-05-06 11:20 53.43901 -1.50449 36048 ft 411 kts 277°
2026-05-06 11:21 53.44771 -1.59916 36042 ft 410 kts 277°
2026-05-06 11:21 53.45628 -1.69373 36057 ft 410 kts 277°
2026-05-06 11:22 53.46478 -1.78806 36053 ft 409 kts 277°
2026-05-06 11:22 53.47314 -1.88268 36063 ft 409 kts 277°
2026-05-06 11:23 53.48132 -1.97718 36055 ft 409 kts 277°
2026-05-06 11:23 53.48946 -2.07180 36060 ft 409 kts 277°
2026-05-06 11:24 53.49755 -2.16652 36048 ft 410 kts 277°
2026-05-06 11:24 53.50559 -2.26124 36047 ft 410 kts 277°
2026-05-06 11:25 53.51359 -2.35611 36055 ft 410 kts 277°
2026-05-06 11:25 53.52156 -2.45143 35778 ft 407 kts 277°
2026-05-06 11:25 53.52544 -2.49815 35518 ft 399 kts 276°
2026-05-06 11:26 53.52923 -2.54402 35135 ft 396 kts 276°
2026-05-06 11:26 53.53300 -2.58987 34784 ft 392 kts 277°
2026-05-06 11:26 53.53668 -2.63494 34415 ft 389 kts 276°
2026-05-06 11:26 53.54033 -2.67980 34046 ft 386 kts 276°
2026-05-06 11:27 53.54393 -2.72437 33621 ft 383 kts 276°
2026-05-06 11:27 53.54749 -2.76858 33243 ft 379 kts 276°
2026-05-06 11:27 53.55100 -2.81231 32849 ft 376 kts 276°
2026-05-06 11:27 53.55445 -2.85556 32533 ft 372 kts 276°
2026-05-06 11:28 53.55786 -2.89846 32169 ft 368 kts 276°
2026-05-06 11:28 53.56122 -2.94094 31817 ft 365 kts 276°
2026-05-06 11:28 53.56454 -2.98314 31465 ft 362 kts 276°
2026-05-06 11:28 53.56782 -3.02501 31121 ft 359 kts 276°
2026-05-06 11:29 53.57110 -3.06708 30776 ft 357 kts 276°
2026-05-06 11:29 53.57430 -3.10829 30456 ft 354 kts 276°
2026-05-06 11:29 53.57746 -3.14928 30101 ft 352 kts 276°
2026-05-06 11:29 53.58059 -3.18990 29714 ft 349 kts 276°
2026-05-06 11:30 53.58366 -3.23010 29370 ft 344 kts 276°
2026-05-06 11:30 53.58669 -3.26984 29020 ft 341 kts 276°
2026-05-06 11:30 53.58968 -3.30915 28654 ft 337 kts 276°
2026-05-06 11:30 53.59261 -3.34806 28331 ft 334 kts 276°
2026-05-06 11:31 53.59552 -3.38670 27971 ft 331 kts 276°
2026-05-06 11:31 53.59838 -3.42494 27639 ft 328 kts 276°
2026-05-06 11:31 53.60122 -3.46295 27310 ft 325 kts 276°
2026-05-06 11:31 53.60401 -3.50058 26966 ft 323 kts 276°
2026-05-06 11:32 53.60682 -3.53852 26631 ft 321 kts 276°
2026-05-06 11:32 53.60956 -3.57565 26301 ft 319 kts 276°
2026-05-06 11:32 53.61225 -3.61237 25982 ft 316 kts 276°
2026-05-06 11:32 53.61505 -3.64924 25652 ft 315 kts 279°
2026-05-06 11:33 53.62052 -3.68493 25277 ft 317 kts 290°
2026-05-06 11:33 53.62876 -3.71954 24932 ft 319 kts 291°
2026-05-06 11:33 53.63731 -3.75439 24599 ft 326 kts 291°
2026-05-06 11:33 53.64602 -3.79004 24261 ft 330 kts 291°
2026-05-06 11:34 53.65469 -3.82590 23915 ft 330 kts 291°
2026-05-06 11:34 53.66326 -3.86165 23556 ft 328 kts 291°
2026-05-06 11:34 53.67175 -3.89728 23178 ft 327 kts 291°
2026-05-06 11:34 53.68016 -3.93270 22830 ft 324 kts 291°
2026-05-06 11:35 53.68853 -3.96776 22466 ft 322 kts 291°
2026-05-06 11:35 53.69699 -4.00258 22095 ft 320 kts 291°
2026-05-06 11:35 53.70541 -4.03718 21760 ft 317 kts 291°
2026-05-06 11:35 53.71343 -4.07163 21431 ft 314 kts 287°
2026-05-06 11:36 53.71815 -4.10751 21100 ft 311 kts 276°
2026-05-06 11:36 53.71974 -4.14381 20785 ft 309 kts 274°
2026-05-06 11:36 53.72092 -4.17988 20459 ft 307 kts 273°
2026-05-06 11:36 53.72207 -4.21573 20161 ft 304 kts 274°
2026-05-06 11:37 53.72325 -4.25133 19855 ft 303 kts 274°
2026-05-06 11:37 53.72447 -4.28664 19540 ft 301 kts 274°
2026-05-06 11:37 53.72570 -4.32174 19237 ft 299 kts 274°
2026-05-06 11:37 53.72694 -4.35668 18933 ft 297 kts 274°
2026-05-06 11:38 53.72817 -4.39138 18622 ft 296 kts 274°
2026-05-06 11:38 53.72938 -4.42597 18323 ft 294 kts 274°
2026-05-06 11:38 53.73057 -4.46039 17975 ft 293 kts 274°
2026-05-06 11:38 53.73176 -4.49467 17633 ft 292 kts 274°
2026-05-06 11:39 53.73294 -4.52877 17331 ft 289 kts 274°
2026-05-06 11:39 53.73410 -4.56255 17028 ft 287 kts 274°
2026-05-06 11:39 53.73523 -4.59607 16736 ft 285 kts 274°
2026-05-06 11:39 53.73635 -4.62931 16450 ft 282 kts 274°
2026-05-06 11:40 53.73746 -4.66237 16145 ft 281 kts 274°
2026-05-06 11:40 53.73855 -4.69520 15852 ft 279 kts 274°
2026-05-06 11:40 53.73964 -4.72781 15561 ft 278 kts 274°
2026-05-06 11:40 53.74070 -4.76028 15270 ft 276 kts 274°
2026-05-06 11:41 53.74174 -4.79258 14981 ft 275 kts 274°
2026-05-06 11:41 53.74277 -4.82476 14697 ft 274 kts 274°
2026-05-06 11:41 53.74382 -4.85678 14407 ft 273 kts 274°
2026-05-06 11:41 53.74488 -4.88872 14114 ft 272 kts 274°
2026-05-06 11:42 53.74594 -4.92056 13828 ft 271 kts 274°
2026-05-06 11:42 53.74699 -4.95229 13510 ft 270 kts 274°
2026-05-06 11:42 53.74802 -4.98387 13211 ft 269 kts 274°
2026-05-06 11:42 53.74905 -5.01525 12926 ft 267 kts 274°
2026-05-06 11:43 53.75005 -5.04647 12641 ft 265 kts 274°
2026-05-06 11:43 53.75104 -5.07741 12358 ft 264 kts 274°
2026-05-06 11:43 53.75202 -5.10873 12072 ft 262 kts 274°
2026-05-06 11:44 53.74802 -5.16922 11508 ft 262 kts 252°
2026-05-06 11:44 53.74194 -5.19814 11226 ft 261 kts 252°
2026-05-06 11:44 53.73793 -5.21717 11036 ft 260 kts 252°
2026-05-06 11:44 53.73190 -5.24607 10760 ft 260 kts 252°
2026-05-06 11:45 53.72597 -5.27479 10482 ft 259 kts 252°
2026-05-06 11:45 53.72007 -5.30353 10216 ft 258 kts 252°
2026-05-06 11:45 53.71431 -5.33171 10109 ft 252 kts 252°
2026-05-06 11:45 53.70857 -5.35988 9858 ft 257 kts 252°
2026-05-06 11:46 53.70272 -5.38865 9583 ft 262 kts 252°
2026-05-06 11:46 53.69667 -5.41838 9296 ft 264 kts 252°
2026-05-06 11:46 53.69077 -5.44727 9002 ft 263 kts 252°
2026-05-06 11:46 53.68483 -5.47633 8731 ft 261 kts 252°
2026-05-06 11:47 53.67732 -5.50405 8421 ft 261 kts 232°
2026-05-06 11:47 53.66463 -5.52568 8206 ft 258 kts 225°
2026-05-06 11:47 53.65162 -5.54658 7916 ft 258 kts 224°
2026-05-06 11:47 53.63870 -5.56734 7653 ft 256 kts 224°
2026-05-06 11:48 53.62585 -5.58801 7384 ft 255 kts 224°
2026-05-06 11:48 53.61287 -5.60889 7119 ft 254 kts 224°
2026-05-06 11:48 53.60030 -5.62913 6853 ft 253 kts 224°
2026-05-06 11:48 53.58763 -5.64955 6598 ft 252 kts 223°
2026-05-06 11:49 53.57500 -5.66990 6332 ft 251 kts 223°
2026-05-06 11:49 53.56240 -5.69018 6057 ft 250 kts 223°
2026-05-06 11:49 53.54972 -5.71059 5786 ft 248 kts 223°
2026-05-06 11:49 53.53726 -5.73064 5521 ft 247 kts 223°
2026-05-06 11:50 53.52484 -5.75060 5247 ft 247 kts 223°
2026-05-06 11:50 53.51264 -5.77020 4998 ft 245 kts 223°
2026-05-06 11:50 53.50033 -5.78997 4738 ft 245 kts 222°
2026-05-06 11:50 53.48813 -5.80954 4577 ft 239 kts 223°
2026-05-06 11:51 53.47613 -5.82877 4456 ft 232 kts 223°
2026-05-06 11:51 53.46462 -5.84721 4342 ft 225 kts 223°
2026-05-06 11:51 53.45351 -5.86501 4244 ft 218 kts 223°
2026-05-06 11:51 53.44274 -5.88223 4178 ft 209 kts 223°
2026-05-06 11:52 53.43248 -5.89861 4016 ft 200 kts 222°
2026-05-06 11:52 53.42254 -5.91448 3818 ft 195 kts 222°
2026-05-06 11:52 53.41277 -5.93005 3616 ft 193 kts 223°
2026-05-06 11:52 53.40462 -5.94766 3386 ft 194 kts 251°
2026-05-06 11:53 53.40517 -5.96957 3261 ft 190 kts 288°
2026-05-06 11:53 53.40758 -5.99118 3076 ft 189 kts 267°
2026-05-06 11:53 53.40760 -6.01315 3008 ft 188 kts 273°
2026-05-06 11:53 53.40880 -6.03474 2797 ft 184 kts 275°
2026-05-06 11:54 53.40998 -6.05568 2550 ft 177 kts 275°
2026-05-06 11:54 53.41104 -6.07557 2322 ft 165 kts 275°
2026-05-06 11:54 53.41200 -6.09395 2134 ft 154 kts 275°
2026-05-06 11:54 53.41293 -6.11170 1898 ft 151 kts 276°
2026-05-06 11:55 53.41385 -6.12915 1693 ft 151 kts 275°
2026-05-06 11:55 53.41476 -6.14668 1484 ft 151 kts 276°
2026-05-06 11:55 53.41569 -6.16427 1264 ft 151 kts 276°
2026-05-06 11:55 53.41663 -6.18199 1051 ft 151 kts 276°
2026-05-06 11:56 53.41759 -6.19964 857 ft 153 kts 276°
2026-05-06 11:56 53.41842 -6.21756 676 ft 155 kts 275°
2026-05-06 11:56 53.41937 -6.23554 453 ft 155 kts 277°
2026-05-06 11:56 53.42039 -6.25345 231 ft 154 kts 276°
2026-05-06 11:57 53.42112 -6.27017 210 ft 124 kts 271°
2026-05-06 11:57 53.42193 -6.28176 219 ft 73 kts 276°
2026-05-06 11:57 53.42235 -6.28771 214 ft 28 kts 275°
2026-05-06 11:57 53.42248 -6.28990 212 ft 15 kts 287°
2026-05-06 11:58 53.42322 -6.29076 209 ft 14 kts 358°
2026-05-06 11:58 53.42402 -6.29012 210 ft 13 kts 58°
2026-05-06 11:58 53.42408 -6.28985 215 ft 13 kts 74°
2026-05-06 11:58 53.42408 -6.28849 210 ft 13 kts 94°
2026-05-06 11:59 53.42401 -6.28701 210 ft 12 kts 96°
2026-05-06 11:59 53.42392 -6.28557 215 ft 12 kts 95°
2026-05-06 11:59 53.42384 -6.28417 210 ft 12 kts 95°
2026-05-06 11:59 53.42377 -6.28281 213 ft 12 kts 95°
2026-05-06 12:00 53.42370 -6.28149 215 ft 12 kts 95°
2026-05-06 12:00 53.42361 -6.27999 214 ft 14 kts 98°
2026-05-06 12:00 53.42357 -6.27816 210 ft 17 kts 95°
2026-05-06 12:00 53.42343 -6.27597 212 ft 20 kts 91°
2026-05-06 12:01 53.42331 -6.27366 210 ft 20 kts 95°
2026-05-06 12:01 53.42315 -6.27156 212 ft 15 kts 100°
2026-05-06 12:01 53.42304 -6.26985 212 ft 14 kts 95°
2026-05-06 12:01 53.42296 -6.26820 210 ft 14 kts 94°
2026-05-06 12:02 53.42285 -6.26664 210 ft 13 kts 96°
2026-05-06 12:02 53.42277 -6.26513 215 ft 13 kts 95°
2026-05-06 12:02 53.42269 -6.26366 210 ft 12 kts 95°
2026-05-06 12:02 53.42268 -6.26224 210 ft 12 kts 86°
2026-05-06 12:03 53.42302 -6.26098 213 ft 12 kts 53°
2026-05-06 12:03 53.42358 -6.26001 214 ft 11 kts 44°
2026-05-06 12:03 53.42414 -6.25909 210 ft 11 kts 46°
2026-05-06 12:03 53.42466 -6.25816 210 ft 11 kts 46°
2026-05-06 12:04 53.42517 -6.25726 210 ft 10 kts 45°
2026-05-06 12:04 53.42567 -6.25640 213 ft 10 kts 45°
2026-05-06 12:04 53.42616 -6.25556 210 ft 10 kts 46°
2026-05-06 12:04 53.42663 -6.25474 212 ft 10 kts 46°
2026-05-06 12:05 53.42709 -6.25394 216 ft 9 kts 46°
2026-05-06 12:05 53.42757 -6.25310 210 ft 10 kts 46°
2026-05-06 12:05 53.42796 -6.25216 210 ft 10 kts 78°
2026-05-06 12:05 53.42794 -6.25105 210 ft 9 kts 90°
2026-05-06 12:06 53.42828 -6.25027 210 ft 8 kts 40°
2026-05-06 12:06 53.42868 -6.24958 210 ft 8 kts 48°
2026-05-06 12:06 53.42905 -6.24888 210 ft 8 kts 47°
2026-05-06 12:06 53.42926 -6.24877 216 ft 1 kts 337°
2026-05-06 12:07 53.42932 -6.24888 210 ft 1 kts 312°
2026-05-06 12:07 53.42940 -6.24903 210 ft 3 kts 309°
2026-05-06 12:07 53.42955 -6.24953 218 ft 6 kts 293°
2026-05-06 12:07 53.42977 -6.24955 216 ft 5 kts 22°
2026-05-06 12:08 53.42996 -6.24945 210 ft 3 kts 13°
2026-05-06 12:08 53.43005 -6.24944 210 ft 2 kts
2026-05-06 12:08 53.43009 -6.24943 210 ft 0 kts